Time,TemperatureF,DewpointF,PressureIn,WindDirection,WindDirectionDegrees,WindSpeedMPH,WindSpeedGustMPH,Humidity,HourlyPrecipIn,Conditions,Clouds,dailyrainin,SoftwareType,DateUTC
2013-01-31 19:56:00,37.7,-99.9,28.44,West,270,0.0,-999.0,-999,-99.99,,,-99.99,,2013-01-31 19:56:00,
2013-01-31 20:02:00,37.6,-99.9,28.45,West,270,11.0,-999.0,-999,-99.99,,,-99.99,,2013-01-31 20:02:00,
2013-01-31 20:08:00,37.7,-99.9,28.45,West,270,12.0,-999.0,-999,-99.99,,,-99.99,,2013-01-31 20:08:00,
2013-01-31 20:14:00,37.7,-99.9,28.44,WSW,247,13.0,-999.0,-999,-99.99,,,-99.99,,2013-01-31 20:14:00,
2013-01-31 20:20:00,37.6,-99.9,28.44,West,270,11.0,-999.0,-999,-99.99,,,-99.99,,2013-01-31 20:20:00,
2013-01-31 20:26:00,37.6,-99.9,28.45,WSW,247,11.0,-999.0,-999,-99.99,,,-99.99,,2013-01-31 20:26:00,
2013-01-31 20:32:00,37.7,-99.9,28.45,East,90,7.0,-999.0,-999,-99.99,,,-99.99,,2013-01-31 20:32:00,
2013-01-31 20:38:00,37.6,-99.9,28.45,WSW,247,9.0,-999.0,-999,-99.99,,,-99.99,,2013-01-31 20:38:00,
2013-01-31 20:44:00,37.6,-99.9,28.45,WSW,247,13.0,-999.0,-999,-99.99,,,-99.99,,2013-01-31 20:44:00,
2013-01-31 20:50:00,37.7,-99.9,28.45,WNW,292,14.0,-999.0,-999,-99.99,,,-99.99,,2013-01-31 20:50:00,
2013-01-31 20:56:00,37.8,-99.9,28.45,West,270,14.0,-999.0,-999,-99.99,,,-99.99,,2013-01-31 20:56:00,
2013-01-31 21:02:00,38.0,-99.9,28.45,West,270,12.0,-999.0,-999,-99.99,,,-99.99,,2013-01-31 21:02:00,
2013-01-31 21:08:00,37.8,-99.9,28.45,West,270,9.0,-999.0,-999,-99.99,,,-99.99,,2013-01-31 21:08:00,
2013-01-31 21:14:00,37.7,-99.9,28.45,WNW,292,11.0,-999.0,-999,-99.99,,,-99.99,,2013-01-31 21:14:00,
2013-01-31 21:20:00,37.5,-99.9,28.44,WSW,247,13.0,-999.0,-999,-99.99,,,-99.99,,2013-01-31 21:20:00,
2013-01-31 21:26:00,37.2,-99.9,28.44,West,270,12.0,-999.0,-999,-99.99,,,-99.99,,2013-01-31 21:26:00,
2013-01-31 21:32:00,37.2,-99.9,28.44,West,270,13.0,-999.0,-999,-99.99,,,-99.99,,2013-01-31 21:32:00,
2013-01-31 21:38:00,37.4,-99.9,28.45,North,-999,12.0,-999.0,-999,-99.99,,,-99.99,,2013-01-31 21:38:00,
2013-01-31 21:44:00,37.2,-99.9,28.45,WSW,247,12.0,-999.0,-999,-99.99,,,-99.99,,2013-01-31 21:44:00,
2013-01-31 21:50:00,37.2,-99.9,28.45,WSW,247,12.0,-999.0,-999,-99.99,,,-99.99,,2013-01-31 21:50:00,
2013-01-31 21:56:00,37.2,-99.9,28.45,WSW,247,13.0,-999.0,-999,-99.99,,,-99.99,,2013-01-31 21:56:00,
2013-01-31 22:02:00,37.1,-99.9,28.46,WSW,247,13.0,-999.0,-999,-99.99,,,-99.99,,2013-01-31 22:02:00,
2013-01-31 22:08:00,37.1,-99.9,28.45,West,270,12.0,-999.0,-999,-99.99,,,-99.99,,2013-01-31 22:08:00,
2013-01-31 22:14:00,-999.0,-99.9,28.45,North,-999,-999.0,-999.0,-999,-99.99,,,-99.99,,2013-01-31 22:14:00,
2013-01-31 22:20:00,36.8,-99.9,28.45,West,270,11.0,-999.0,-999,-99.99,,,-99.99,,2013-01-31 22:20:00,
2013-01-31 22:26:00,36.6,-99.9,28.45,West,270,11.0,-999.0,-999,-99.99,,,-99.99,,2013-01-31 22:26:00,
2013-01-31 22:32:00,36.3,-99.9,28.45,WNW,292,12.0,-999.0,-999,-99.99,,,-99.99,,2013-01-31 22:32:00,
2013-01-31 22:38:00,36.2,-99.9,28.44,West,270,12.0,-999.0,-999,-99.99,,,-99.99,,2013-01-31 22:38:00,
2013-01-31 22:44:00,36.2,-99.9,28.44,SW,225,12.0,-999.0,-999,-99.99,,,-99.99,,2013-01-31 22:44:00,
2013-01-31 22:50:00,36.3,-99.9,28.44,NW,315,11.0,-999.0,-999,-99.99,,,-99.99,,2013-01-31 22:50:00,
2013-01-31 22:56:00,36.4,-99.9,28.44,West,270,10.0,-999.0,-999,-99.99,,,-99.99,,2013-01-31 22:56:00,
2013-01-31 23:02:00,36.5,-99.9,28.44,WNW,292,13.0,-999.0,-999,-99.99,,,-99.99,,2013-01-31 23:02:00,
2013-01-31 23:08:00,36.6,-99.9,28.44,West,270,10.0,-999.0,-999,-99.99,,,-99.99,,2013-01-31 23:08:00,
2013-01-31 23:14:00,36.6,-99.9,28.44,West,270,11.0,-999.0,-999,-99.99,,,-99.99,,2013-01-31 23:14:00,
2013-01-31 23:20:00,36.8,-99.9,28.44,West,270,11.0,-999.0,-999,-99.99,,,-99.99,,2013-01-31 23:20:00,
2013-01-31 23:26:00,37.0,-99.9,28.44,West,270,11.0,-999.0,-999,-99.99,,,-99.99,,2013-01-31 23:26:00,
2013-01-31 23:32:00,36.8,-99.9,28.44,West,270,11.0,-999.0,-999,-99.99,,,-99.99,,2013-01-31 23:32:00,
2013-01-31 23:38:00,36.8,-99.9,28.43,West,270,9.0,-999.0,-999,-99.99,,,-99.99,,2013-01-31 23:38:00,
2013-01-31 23:44:00,36.7,-99.9,28.43,West,270,11.0,-999.0,-999,-99.99,,,-99.99,,2013-01-31 23:44:00,
2013-01-31 23:50:00,36.8,-99.9,28.43,West,270,11.0,-999.0,-999,-99.99,,,-99.99,,2013-01-31 23:50:00,
2013-01-31 23:56:00,36.8,-99.9,28.43,WSW,247,11.0,-999.0,-999,-99.99,,,-99.99,,2013-01-31 23:56:00,